When you browse on this site, cookies collect data to enhance your experience and personalize the content and advertising you see.
Visit our Privacy Policy to learn more. By continuing to use the site, you agree to this use of cookies and data.
  • In Spain
  • List of Countries
  • For 7 days
  • Water Temperature
  • Satellite Maps
  • Weather Map
  • Weather Widgets
  • user-avatar
    Login

    Hourly Weather Perth

    Today, 19 April, Friday

    Time Temperature Precipitation Wind Pressure Humidity
    00:00 +17°C° 0.9 mm 6 mps 755 mmHg 78%
    01:00 +17°C° 0.9 mm 8 mps 755 mmHg 80%
    02:00 +17°C° 0.9 mm 9 mps 755 mmHg 81%
    03:00 +16°C° 0.7 mm 8 mps 756 mmHg 78%
    04:00 +15°C° 0.7 mm 8 mps 756 mmHg 75%
    05:00 +13°C° 0.7 mm 8 mps 757 mmHg 71%
    06:00 +13°C° 0.4 mm 8 mps 758 mmHg 70%
    07:00 +13°C° 0.4 mm 8 mps 758 mmHg 69%
    08:00 +12°C° 0.4 mm 8 mps 759 mmHg 68%
    09:00 +13°C° 0.5 mm 8 mps 760 mmHg 65%
    10:00 +13°C° 0.5 mm 8 mps 761 mmHg 62%
    11:00 +13°C° 0.5 mm 8 mps 761 mmHg 59%
    12:00 +15°C° 0.3 mm 8 mps 761 mmHg 56%
    13:00 +15°C° 0.3 mm 8 mps 761 mmHg 54%
    14:00 +15°C° 0.3 mm 8 mps 761 mmHg 52%
    15:00 +14°C° 0.2 mm 7 mps 761 mmHg 53%
    16:00 +14°C° 0.2 mm 7 mps 762 mmHg 54%
    17:00 +14°C° 0.2 mm 7 mps 762 mmHg 56%
    18:00 +13°C° 0.2 mm 6 mps 763 mmHg 59%
    19:00 +13°C° 0.2 mm 6 mps 763 mmHg 62%
    20:00 +12°C° 0.2 mm 5 mps 764 mmHg 65%
    21:00 +12°C° 0.1 mm 5 mps 764 mmHg 65%
    22:00 +12°C° 0.1 mm 5 mps 765 mmHg 65%
    23:00 +12°C° 0.1 mm 5 mps 765 mmHg 65%

    Tomorrow, 20 April, Saturday

    Time Temperature Precipitation Wind Pressure Humidity
    00:00 +12°C° 0.1 mm 4 mps 765 mmHg 65%
    01:00 +12°C° 0.1 mm 4 mps 766 mmHg 65%
    02:00 +12°C° 0.1 mm 4 mps 766 mmHg 65%
    03:00 +11°C° 0 mm 4 mps 766 mmHg 65%
    04:00 +10°C° 0 mm 4 mps 766 mmHg 65%
    05:00 +10°C° 0 mm 3 mps 766 mmHg 65%
    06:00 +10°C° 0 mm 3 mps 767 mmHg 62%
    07:00 +11°C° 0 mm 3 mps 768 mmHg 59%
    08:00 +11°C° 0 mm 3 mps 768 mmHg 56%
    09:00 +13°C° 0 mm 3 mps 768 mmHg 51%
    10:00 +14°C° 0 mm 3 mps 768 mmHg 46%
    11:00 +17°C° 0 mm 3 mps 769 mmHg 40%
    12:00 +17°C° 0 mm 3 mps 768 mmHg 39%
    13:00 +18°C° 0 mm 3 mps 767 mmHg 38%
    14:00 +19°C° 0 mm 3 mps 767 mmHg 36%
    15:00 +19°C° 0 mm 4 mps 767 mmHg 39%
    16:00 +18°C° 0 mm 4 mps 767 mmHg 43%
    17:00 +18°C° 0 mm 4 mps 767 mmHg 46%
    18:00 +17°C° 0 mm 4 mps 768 mmHg 51%
    19:00 +16°C° 0 mm 3 mps 768 mmHg 57%
    20:00 +14°C° 0 mm 3 mps 769 mmHg 62%
    21:00 +13°C° 0 mm 3 mps 769 mmHg 63%
    22:00 +13°C° 0 mm 3 mps 769 mmHg 63%
    23:00 +12°C° 0 mm 3 mps 769 mmHg 63%

    Day after tomorrow, 21 April, Sunday

    Time Temperature Precipitation Wind Pressure Humidity
    00:00 +12°C° 0 mm 3 mps 769 mmHg 62%
    01:00 +13°C° 0 mm 2 mps 769 mmHg 61%
    02:00 +12°C° 0 mm 2 mps 769 mmHg 60%
    03:00 +12°C° 0 mm 2 mps 769 mmHg 61%
    04:00 +12°C° 0 mm 2 mps 769 mmHg 63%
    05:00 +12°C° 0 mm 2 mps 769 mmHg 64%
    06:00 +12°C° 0 mm 2 mps 769 mmHg 62%
    07:00 +12°C° 0 mm 3 mps 769 mmHg 60%
    08:00 +12°C° 0 mm 3 mps 769 mmHg 58%
    09:00 +14°C° 0 mm 3 mps 769 mmHg 50%
    10:00 +17°C° 0 mm 3 mps 769 mmHg 43%
    11:00 +19°C° 0 mm 3 mps 769 mmHg 35%
    12:00 +21°C° 0 mm 2 mps 768 mmHg 32%
    13:00 +23°C° 0 mm 2 mps 768 mmHg 29%
    14:00 +24°C° 0 mm 2 mps 767 mmHg 26%
    15:00 +23°C° 0 mm 2 mps 767 mmHg 28%
    16:00 +23°C° 0 mm 2 mps 767 mmHg 29%
    17:00 +23°C° 0 mm 2 mps 766 mmHg 31%
    18:00 +20°C° 0 mm 2 mps 767 mmHg 34%
    19:00 +19°C° 0 mm 2 mps 767 mmHg 38%
    20:00 +17°C° 0 mm 2 mps 767 mmHg 41%
    21:00 +17°C° 0 mm 2 mps 767 mmHg 41%
    22:00 +17°C° 0 mm 3 mps 767 mmHg 40%
    23:00 +17°C° 0 mm 3 mps 767 mmHg 39%

    22 April, Monday

    Time Temperature Precipitation Wind Pressure Humidity
    00:00 +17°C° 0 mm 3 mps 767 mmHg 40%
    01:00 +17°C° 0 mm 4 mps 766 mmHg 41%
    02:00 +17°C° 0 mm 4 mps 766 mmHg 41%
    03:00 +15°C° 0 mm 4 mps 766 mmHg 43%
    04:00 +15°C° 0 mm 4 mps 766 mmHg 45%
    05:00 +16°C° 0 mm 3 mps 765 mmHg 47%
    06:00 +15°C° 0 mm 4 mps 766 mmHg 46%
    07:00 +17°C° 0 mm 4 mps 766 mmHg 45%
    08:00 +17°C° 0 mm 4 mps 766 mmHg 43%
    09:00 +19°C° 0 mm 4 mps 766 mmHg 39%
    10:00 +21°C° 0 mm 4 mps 766 mmHg 34%
    11:00 +25°C° 0 mm 3 mps 766 mmHg 29%
    12:00 +25°C° 0 mm 3 mps 765 mmHg 28%
    13:00 +26°C° 0 mm 3 mps 764 mmHg 27%
    14:00 +27°C° 0 mm 2 mps 764 mmHg 26%
    15:00 +26°C° 0 mm 3 mps 764 mmHg 29%
    16:00 +25°C° 0 mm 3 mps 764 mmHg 33%
    17:00 +24°C° 0 mm 3 mps 764 mmHg 36%
    18:00 +22°C° 0 mm 3 mps 765 mmHg 43%
    19:00 +20°C° 0 mm 3 mps 765 mmHg 50%
    20:00 +19°C° 0 mm 2 mps 766 mmHg 56%
    21:00 +18°C° 0 mm 2 mps 766 mmHg 58%
    22:00 +18°C° 0 mm 2 mps 766 mmHg 60%
    23:00 +17°C° 0 mm 2 mps 767 mmHg 62%

    23 April, Tuesday

    Time Temperature Precipitation Wind Pressure Humidity
    00:00 +17°C° 0 mm 2 mps 767 mmHg 64%
    01:00 +17°C° 0 mm 2 mps 767 mmHg 67%
    02:00 +16°C° 0 mm 2 mps 767 mmHg 69%
    03:00 +16°C° 0 mm 2 mps 767 mmHg 71%
    04:00 +16°C° 0 mm 2 mps 767 mmHg 72%
    05:00 +15°C° 0 mm 2 mps 767 mmHg 73%
    06:00 +16°C° 0 mm 3 mps 768 mmHg 72%
    07:00 +16°C° 0 mm 3 mps 768 mmHg 70%
    08:00 +17°C° 0 mm 3 mps 769 mmHg 69%
    09:00 +19°C° 0 mm 3 mps 768 mmHg 59%
    10:00 +21°C° 0 mm 3 mps 768 mmHg 49%
    11:00 +25°C° 0 mm 3 mps 768 mmHg 39%
    12:00 +26°C° 0 mm 2 mps 768 mmHg 36%
    13:00 +27°C° 0 mm 2 mps 767 mmHg 33%
    14:00 +28°C° 0 mm 2 mps 767 mmHg 30%
    15:00 +27°C° 0 mm 2 mps 767 mmHg 34%
    16:00 +26°C° 0 mm 2 mps 767 mmHg 37%
    17:00 +26°C° 0 mm 3 mps 767 mmHg 41%
    18:00 +24°C° 0 mm 3 mps 768 mmHg 44%
    19:00 +22°C° 0 mm 3 mps 768 mmHg 47%
    20:00 +20°C° 0 mm 3 mps 768 mmHg 50%
    21:00 +20°C° 0 mm 3 mps 769 mmHg 57%
    22:00 +19°C° 0 mm 4 mps 769 mmHg 64%
    23:00 +19°C° 0 mm 5 mps 769 mmHg 71%

    24 April, Wednesday

    Time Temperature Precipitation Wind Pressure Humidity
    00:00 +17°C° 0 mm 5 mps 769 mmHg 74%
    01:00 +17°C° 0 mm 6 mps 769 mmHg 78%
    02:00 +17°C° 0 mm 6 mps 769 mmHg 82%
    03:00 +17°C° 0 mm 6 mps 769 mmHg 82%
    04:00 +16°C° 0 mm 6 mps 769 mmHg 82%
    05:00 +16°C° 0 mm 6 mps 769 mmHg 81%
    06:00 +16°C° 0 mm 6 mps 770 mmHg 79%
    07:00 +17°C° 0 mm 6 mps 770 mmHg 77%
    08:00 +17°C° 0 mm 6 mps 770 mmHg 75%
    09:00 +20°C° 0 mm 6 mps 770 mmHg 66%
    10:00 +22°C° 0 mm 5 mps 770 mmHg 56%
    11:00 +25°C° 0 mm 5 mps 769 mmHg 47%
    12:00 +26°C° 0 mm 4 mps 769 mmHg 42%
    13:00 +28°C° 0 mm 3 mps 768 mmHg 37%
    14:00 +29°C° 0 mm 3 mps 767 mmHg 32%
    15:00 +28°C° 0 mm 2 mps 767 mmHg 33%
    16:00 +28°C° 0 mm 2 mps 767 mmHg 33%
    17:00 +27°C° 0 mm 2 mps 767 mmHg 34%
    18:00 +26°C° 0 mm 2 mps 768 mmHg 37%
    19:00 +24°C° 0 mm 2 mps 768 mmHg 40%
    20:00 +22°C° 0 mm 3 mps 768 mmHg 43%
    21:00 +21°C° 0 mm 3 mps 768 mmHg 43%
    22:00 +21°C° 0 mm 3 mps 769 mmHg 42%
    23:00 +21°C° 0 mm 4 mps 769 mmHg 42%
    Show more